Broken Bow, NE

11:55 PM CDT on July 20, 2017 (GMT -0500)
Broken Bow Municipal

Weather History for KBBW - March, 2013

Change the Weather History Date:

Friday, March 1, 2013

  Actual Average Record
Temperature  
Mean Temperature 20 °F 32 °F  
Max Temperature 33 °F 45 °F 76 °F (2008)
Min Temperature 6 °F 19 °F -18 °F (1980)
Degree Days  
Heating Degree Days 45 33  
Month to date heating degree days 45 33  
Cooling Degree Days 0 0  
Month to date cooling degree days 0 0  
Year to date cooling degree days 0 0  
Moisture  
Dew Point 14 °F    
Average Humidity 82    
Maximum Humidity 100    
Minimum Humidity 64    
Precipitation  
Precipitation 0.00 in 0.02 in 1.03 in (2004)
Snow  
Snow 0.00 in - - ()
Snow Depth -    
Sea Level Pressure  
Sea Level Pressure 30.29 in    
Wind  
Wind Speed 4 mph (North)    
Max Wind Speed 15 mph    
Max Gust Speed 17 mph    
Visibility 6 miles    
Events Fog    
T = Trace of Precipitation, MM = Missing Value Source: NWS Daily Summary

Daily Weather History Graph

Daily Weather History Graph

Search for Another Location

Airport or City:

Trip Planner

Search our weather history database for the weather conditions in past years. The results will help you decide how hot, cold, wet, or windy it might be!

Date:

Astronomy

Mar. 01, 2013 Rise Set
Actual Time 7:12 AM CST 6:29 PM CST
Civil Twilight 6:44 AM CST 6:57 PM CST
Nautical Twilight 6:12 AM CST 7:29 PM CST
Astronomical Twilight 5:40 AM CST 8:01 PM CST
Moon 11:08 PM CST (3/1) 8:56 AM CST (3/1)
Length of Visible Light 12h 12m
Length of Day
11h 16m
Waning Gibbous, 83% of the Moon is Illuminated
Mar 1
Waning Gibbous
Mar 4
Last Quarter
Mar 11
New
Mar 19
First Quarter
Mar 27
Full

Hourly Weather History & Observations

Time (CST) Temp. Windchill Dew Point Humidity Pressure Visibility Wind Dir Wind Speed Gust Speed Precip Events Conditions
12:53 AM 10.9 °F - 10.0 °F 96% 30.31 in 5.0 mi Calm Calm - N/A   Clear
1:53 AM 15.8 °F 8.6 °F 15.8 °F 100% 30.22 in 7.0 mi NNW 4.6 mph - N/A   Clear
2:16 AM 15.8 °F 7.2 °F 14.0 °F 93% 30.22 in 7.0 mi North 5.8 mph - N/A   Mostly Cloudy
2:53 AM 18.0 °F - 16.0 °F 92% 30.31 in 7.0 mi Calm Calm - N/A   Overcast
3:17 AM 17.6 °F - 15.8 °F 93% 30.21 in 6.0 mi Calm Calm - N/A   Partly Cloudy
3:53 AM 15.1 °F 9.4 °F 10.9 °F 84% 30.30 in 5.0 mi NNW 3.5 mph - N/A   Clear
4:53 AM 10.4 °F - 8.6 °F 92% 30.21 in 5.0 mi Calm Calm - N/A   Clear
5:27 AM 8.6 °F - 6.8 °F 92% 30.21 in 5.0 mi Calm Calm - N/A   Scattered Clouds
5:38 AM 8.6 °F - 8.6 °F 100% 30.22 in 4.0 mi Calm Calm - N/A   Mostly Cloudy
5:47 AM 8.6 °F - 6.8 °F 92% 30.22 in 1.8 mi Calm Calm - N/A   Overcast
5:51 AM 10.4 °F - 6.8 °F 85% 30.22 in 0.8 mi Calm Calm - N/A   Mist
5:53 AM 10.4 °F - 6.8 °F 85% 30.22 in 0.5 mi Calm Calm - N/A Fog Light Freezing Fog
6:24 AM 6.8 °F - 3.2 °F 85% 30.22 in 1.5 mi Calm Calm - N/A   Mostly Cloudy
6:26 AM 6.8 °F - 3.2 °F 85% 30.22 in 4.0 mi Calm Calm - N/A   Mostly Cloudy
6:30 AM 8.6 °F - 3.2 °F 79% 30.23 in 1.5 mi Calm Calm - N/A   Mostly Cloudy
6:32 AM 8.6 °F - 5.0 °F 85% 30.23 in 0.8 mi Calm Calm - N/A   Mist
6:53 AM 7.0 °F - 5.0 °F 92% 30.35 in 0.2 mi Calm Calm - N/A Fog Light Freezing Fog
7:05 AM 6.8 °F - 3.2 °F 85% 30.23 in 0.2 mi Calm Calm - N/A Fog Light Freezing Fog
7:36 AM 6.8 °F - 5.0 °F 92% 30.23 in 1.2 mi Calm Calm - N/A   Scattered Clouds
7:38 AM 8.6 °F - 5.0 °F 85% 30.23 in 3.0 mi Calm Calm - N/A   Scattered Clouds
7:53 AM 9.0 °F - 7.0 °F 92% 30.37 in 0.8 mi Calm Calm - N/A   Mist
7:59 AM 8.6 °F - 6.8 °F 92% 30.24 in 1.2 mi Calm Calm - N/A   Partly Cloudy
8:04 AM 8.6 °F - 6.8 °F 92% 30.24 in 0.8 mi Calm Calm - N/A   Scattered Clouds
8:14 AM 10.4 °F - 8.6 °F 92% 30.24 in 1.5 mi Calm Calm - N/A   Scattered Clouds
8:22 AM 10.4 °F - 8.6 °F 92% 30.25 in 3.0 mi Calm Calm - N/A   Scattered Clouds
8:53 AM 14.0 °F - 14.0 °F 100% 30.25 in 5.0 mi Calm Calm - N/A   Partly Cloudy
9:32 AM 19.4 °F 11.5 °F 17.6 °F 93% 30.27 in 4.0 mi North 5.8 mph - N/A   Scattered Clouds
9:53 AM 21.0 °F 12.4 °F 19.0 °F 92% 30.39 in 4.0 mi North 6.9 mph - N/A   Scattered Clouds
10:10 AM 21.2 °F 12.6 °F 19.4 °F 93% 30.27 in 4.0 mi North 6.9 mph - N/A   Mostly Cloudy
10:53 AM 24.8 °F 16.1 °F 21.2 °F 86% 30.27 in 6.0 mi North 8.1 mph - N/A   Overcast
11:29 AM 26.6 °F 17.5 °F 23.0 °F 86% 30.28 in 8.0 mi North 9.2 mph - N/A   Mostly Cloudy
11:53 AM 26.1 °F 16.8 °F 23.0 °F 88% 30.40 in 8.0 mi North 9.2 mph - N/A   Overcast
12:32 PM 28.4 °F 18.5 °F 24.8 °F 86% 30.29 in 10.0 mi North 11.5 mph - N/A   Overcast
12:53 PM 28.9 °F 19.8 °F 24.1 °F 82% 30.40 in 10.0 mi North 10.4 mph - N/A   Mostly Cloudy
1:03 PM 28.4 °F 18.5 °F 24.8 °F 86% 30.27 in 10.0 mi North 11.5 mph - N/A   Mostly Cloudy
1:20 PM 28.4 °F 18.0 °F 24.8 °F 86% 30.27 in 10.0 mi North 12.7 mph - N/A   Scattered Clouds
1:53 PM 30.0 °F 20.5 °F 24.1 °F 79% 30.38 in 10.0 mi North 11.5 mph - N/A   Mostly Cloudy
2:53 PM 30.9 °F 21.7 °F 24.1 °F 76% 30.35 in 10.0 mi North 11.5 mph - N/A   Partly Cloudy
3:53 PM 32.0 °F 23.6 °F 23.0 °F 69% 30.35 in 10.0 mi North 10.4 mph - N/A   Clear
4:53 PM 33.1 °F 24.9 °F 23.0 °F 66% 30.37 in 10.0 mi North 10.4 mph - N/A   Clear
5:53 PM 30.9 °F 26.2 °F 23.0 °F 72% 30.38 in 10.0 mi NNE 4.6 mph - N/A   Clear
6:53 PM 25.0 °F - 21.0 °F 85% 30.41 in 10.0 mi Calm Calm - N/A   Clear
7:53 PM 19.4 °F - 17.6 °F 93% 30.29 in 10.0 mi Calm Calm - N/A   Clear
8:53 PM 19.0 °F - 16.0 °F 88% 30.42 in 10.0 mi Calm Calm - N/A   Clear
9:53 PM 18.0 °F - 17.1 °F 96% 30.41 in 9.0 mi Calm Calm - N/A   Clear
10:53 PM 15.1 °F - 12.0 °F 88% 30.40 in 9.0 mi Calm Calm - N/A   Clear
11:53 PM 12.9 °F - 10.9 °F 92% 30.39 in 8.0 mi Calm Calm - N/A   Clear